Regional Weather Roundup
Issued by NWS

Home | Current Version | Previous Version | Graphics & Text | Print | Product List | Glossary On
Versions: 1 2 3 4 5 6 7 8 9 10 11 12 13 14 15 16 17 18 19 20 21 22 23 24 25 26 27 28 29 30 31 32 33 34 35 36 37 38 39 40 41 42 43 44 45 46 47 48 49 50
000
ASUS43 KMPX 272001
RWRMN
WEATHER ROUNDUP FOR MINNESOTA
NATIONAL WEATHER SERVICE TWIN CITIES/CHANHASSEN MN
300 PM CDT TUE JUN 27 2017


NOTE: "FAIR" INDICATES FEW OR NO CLOUDS BELOW 12,000 FEET WITH NO
SIGNIFICANT WEATHER AND/OR OBSTRUCTIONS TO VISIBILITY. N/A MEANS
CURRENT SKY AND/OR WEATHER CONDITIONS ARE NOT AVAILABLE.

MNZ060>063-068>070-272100-
   Twin Cities Metro

CITY           SKY/WX    TMP DP  RH WIND       PRES   REMARKS
TWIN CITIES    PTSUNNY   75  40  28 S15G23    29.96F
ST PAUL        MOSUNNY   74  43  32 S13G24    29.96F
CRYSTAL        MOSUNNY   74  40  29 S18G25    29.94F
BLAINE         PTSUNNY   75  43  31 S12       29.95F
LAKEVILLE      MOSUNNY   73  43  33 S9        29.97F
EDEN PRAIRIE   PTSUNNY   76  43  30 S10G21    29.95F
SOUTH ST PAUL  SUNNY     75  41  29 S13       29.96F
LAKE ELMO      FAIR      73  46  38 S13G20    29.97F
$$
MNZ001>005-007-008-013>017-022>024-027-028-272100-
   Northwest Minnesota

CITY           SKY/WX    TMP DP  RH WIND       PRES   REMARKS
BEMIDJI        CLOUDY    74  44  34 S18G24    29.83F
HALLOCK        SUNNY     79  48  34 S16G24    29.72S
ROSEAU         MOSUNNY   75  48  38 S13G18    29.78S
WARROAD        MOSUNNY   73  48  40 S8        29.78F
CROOKSTON      SUNNY     77  43  29 S26       29.76S
FOSSTON        SUNNY     72  45  37 S17G25    29.80F
DETROIT LAKES  MOSUNNY   72  43  35 S18G26    29.83F
MOORHEAD       CLOUDY    73  39  29 S24G32    29.78F
PARK RAPIDS    MOSUNNY   75  41  29 S20G26    29.85F
MAHNOMEN       FAIR      73  44  36 S23       29.79F
$$
MNZ006-009>011-018-025>026-272100-
   North Central Minnesota

CITY           SKY/WX    TMP DP  RH WIND       PRES   REMARKS
BAUDETTE       CLOUDY    73  48  41 S10       29.81F
FLAG ISLAND    CLOUDY    72  54  53 S7        29.79F
INTL FALLS     SUNNY     73  46  38 SW6       29.83F
WASKISH        CLOUDY    72  46  40 S7        29.83F
BIG FORK       MOSUNNY   73  46  38 S9G18     29.86F
LONGVILLE      SUNNY     73  46  38 S13G20    29.87F
GRAND RAPIDS   SUNNY     71  45  39 S12       29.90F
CRANE LAKE     MOSUNNY   72  43  35 S8        29.87F
ORR            SUNNY     72  39  30 S8G17     29.84F
COOK           MOSUNNY   72  43  35 S12G17    29.87F
WALKER         FAIR      71  43  37 S13       29.86F
$$
MNZ012-019>021-037-272100-
   Northeast Minnesota

CITY           SKY/WX    TMP DP  RH WIND       PRES   REMARKS
DULUTH         SUNNY     73  46  38 W17G28    29.92F
ELY            CLOUDY    72  43  35 S8        29.88F
HIBBING        SUNNY     71  42  35 S10G22    29.88F
EVELETH        MOSUNNY   73  33  23 S16       29.90F
DULUTH HARBOR  MOSUNNY   75  46  35 SW9G15    29.91F
TWO HARBORS    PTSUNNY   75  52  43 SW15G23   29.89F
SILVER BAY     CLOUDY    73  46  38 S16G23    29.89F
GRAND MARAIS     N/A     55  46  71 W9        29.90F
G MARAIS ARPRT SUNNY     66  41  39 S10G21    29.92F
$$
MNZ029>031-032-039>041-046>048-054>057-064-272100-
   West Central Minnesota

CITY           SKY/WX    TMP DP  RH WIND       PRES   REMARKS
FERGUS FALLS   CLOUDY    72  45  37 S20G28    29.81F
WHEATON        CLOUDY    73  39  29 S15G23    29.83S
MORRIS         CLOUDY    75  43  31 S20       29.84F
ALEXANDRIA     PTSUNNY   72  45  37 S15G26    29.88F
ELBOW LAKE     FAIR      71  45  39 S21       29.84F
WADENA         CLOUDY    73  45  35 S21G26    29.86F
GLENWOOD       CLOUDY    73  43  33 S21       29.89F
APPLETON       CLOUDY    79  39  24 S17G24    29.84F
BENSON         MOSUNNY   73  39  29 SW20G26   29.88F
ORTONVILLE     CLOUDY    75  45  33 S13G25    29.82F
MADISON        MOSUNNY   81  45  28 S21G29    29.84F
WILLMAR        FAIR      75  43  31 S8        29.91F
$$
MNZ033>034-036-042>043-049>051-058-059-272100-
   Central Minnesota

CITY           SKY/WX    TMP DP  RH WIND       PRES   REMARKS
ST CLOUD       CLOUDY    73  39  29 S16G22    29.92F
SAUK CENTRE    FAIR      73  43  34 S13G23    29.90F
PAYNESVILLE    CLOUDY    75  41  30 S9G18     29.91F
AITKIN         SUNNY     73  45  35 S14G22    29.89F
PINE RIVER     MOSUNNY   73  46  38 S13G18    29.91F
BRAINERD       MOSUNNY   72  41  32 S15G25    29.89F
STAPLES        MOSUNNY   72  41  33 S15       29.88F
LONG PRAIRIE   FAIR      70  45  40 SE17      29.90F
LITTLE FALLS   MOSUNNY   73  37  27 S14G21    29.91F
LITCHFIELD     CLOUDY    73  45  35 SE8       29.93F
BUFFALO        MOSUNNY   73  38  28 SE7G17    29.95F
MAPLE LAKE     CLOUDY    74  45  35 S6        29.94F
HUTCHINSON     SUNNY     74  46  36 S12G17    29.94F
$$
MNZ037-044-045-052-053-272100-
   East Central Minnesota

CITY           SKY/WX    TMP DP  RH WIND       PRES   REMARKS
PRINCETON      MOSUNNY   79  43  27 SW12G20   29.93F
MORA           SUNNY     73  43  33 S12       29.96F
CAMBRIDGE      SUNNY     75  52  43 S16       29.93F
RUSH CITY      SUNNY     73  45  35 S13       29.95F
MOOSE LAKE     SUNNY     72  43  35 SW12G17   29.91F
HINCKLEY       FAIR      73  46  38 S13G18    29.93F
CLOQUET        SUNNY     72  41  33 SW8G20    29.92F
MCGREGOR       SUNNY     72  43  35 S15G21    29.92F
$$
MNZ071>073-080-081-089-090-097-098-272100-
   Southwest Minnesota

CITY           SKY/WX    TMP DP  RH WIND       PRES   REMARKS
MONTEVIDEO     PTSUNNY   79  46  31 S16G23    29.86F
GRANITE FALLS  MOSUNNY   80  47  30 SE18G25   29.89F
CANBY          MOSUNNY   79  42  27 SW15G22   29.87F
MARSHALL       SUNNY     78  46  32 S21       29.87F
REDWOOD FALLS  MOSUNNY   77  42  28 S21G26    29.90F
OLIVIA         PTSUNNY   73  43  33 S13G21    29.90F
PIPESTONE      SUNNY     75  45  33 S21G29    29.89F
WINDOM         SUNNY     75  41  29 SE18G24   29.92F
WORTHINGTON    SUNNY     75  45  34 S20G28    29.93F
JACKSON        SUNNY     75  41  29 S16G26    29.95F
TRACY          SUNNY     77  47  34 S21       29.90F
SLAYTON        SUNNY     75  43  31 S21G28    29.92F
$$
MNZ065>067-074>077-082>085-091>093-272100-
   South Central Minnesota

CITY           SKY/WX    TMP DP  RH WIND       PRES   REMARKS
MANKATO        SUNNY     75  42  30 S14G21    29.96
NEW ULM        SUNNY     77  43  29 S16G22    29.93F
ST JAMES       SUNNY     75  39  27 SE15G26   29.95F
FAIRMONT       SUNNY     75  45  34 S15G23    29.96F
GLENCOE        MOSUNNY   77  47  34 SE8G20    29.94F
FARIBAULT      MOSUNNY   75  43  31 S9        29.98F
OWATONNA       SUNNY     75  45  33 SE16      29.98F
WASECA         MOSUNNY   73  43  33 S10G16    30.00F
ALBERT LEA     MOSUNNY   73  39  29 S15G22    29.99F
$$
MNZ078>079-086>088-094>096-272100-
   Southeast Minnesota

CITY           SKY/WX    TMP DP  RH WIND       PRES   REMARKS
ROCHESTER      SUNNY     73  43  33 S12       30.01F
RED WING       SUNNY     75  39  27 S8        29.97F
STANTON        CLOUDY    75  43  31 S6G16     29.97F
DODGE CENTER   SUNNY     73  39  29 S12G20    30.00F
WINONA         SUNNY     73  45  35 SW9       30.02F
AUSTIN         MOSUNNY   72  45  37 S8G18     30.00F
PRESTON        SUNNY     72  42  34 S10G16    30.03F
$$
ABBREVIATIONS USED IN REMARKS
   TC - TEMPERATURES IN CELSIUS
  WCI - WIND CHILL INDEX
   HX - HEAT INDEX
  VSB - VISIBILITY
$$



USA.gov is the U.S. government's official web portal to all federal, state and local government web resources and services.